Zurück zum Katalog

COSMOS 457

AktivMilitärLEO
NORAD 5614·PAYLOAD·🇷🇺 Russia

Gestartet Nov 20, 1971 von Plesetsk Cosmodrome

Loading…

Nächste Überflüge (nächste 24 Stunden)

TLE

AktuellSource: Space-Track

Epoche: Sep 14, 2026, 09:18 UTC

1 05614U 71099A   26257.38755525 -.00000334  00000-0 -82763-3 0  9995
2 05614  74.0326 236.4493 0022418 123.3733  42.2113 13.16117531633295

Verfolge COSMOS 457 in Echtzeit mit AllMySat

Download on the App Store